Stations météo

réclame
Mon MeteoGroup
Ballypatrick Forest, Grande-Bretagne (3916): Température de l'air & dewpoint: 19.01.2020 03:00:00 - 25.01.2020 03:00:00 (GMT)Ballypatrick Forest, Grande-Bretagne (3916): Température de l'air -20cm & Température de l'air -100cm: 19.01.2020 03:00:00 - 25.01.2020 03:00:00 (GMT)Ballypatrick Forest, Grande-Bretagne (3916): Vitesse du vent & gusts: 19.01.2020 03:00:00 - 25.01.2020 03:00:00 (GMT)Ballypatrick Forest, Grande-Bretagne (3916): Direction du vent: 19.01.2020 03:00:00 - 25.01.2020 03:00:00 (GMT)Ballypatrick Forest, Grande-Bretagne (3916): reduced air pressure: 19.01.2020 03:00:00 - 25.01.2020 03:00:00 (GMT)Ballypatrick Forest, Grande-Bretagne (3916): visibility: 19.01.2020 03:00:00 - 25.01.2020 03:00:00 (GMT)Ballypatrick Forest, Grande-Bretagne (3916): Quantités de précipitations: 19.01.2020 03:00:00 - 25.01.2020 03:00:00 (GMT)
Date & Time tt [°C] td [°C] tt -20cm [°C] tt -100cm [°C] ff [km/h] ff [knt] fx [km/h] fx [knt] dd ppp [hPa] vv [km] rr [mm]
25.01.2020 03:00:00 5,6 4,7 - - 22 12 - - SW 1013,6 50 0,0
25.01.2020 02:00:00 5,9 4,8 - - 22 12 - - SW 1014,3 45 0,0
25.01.2020 01:00:00 6,0 4,8 - - 22 12 - - SW 1015,2 50 0,0
25.01.2020 00:00:00 6,0 5,2 - - 26 14 - - WSW 1016,0 29 0,0
24.01.2020 23:00:00 6,0 5,3 - - 22 12 - - WSW 1016,6 16 0,0
24.01.2020 22:00:00 5,8 5,4 - - 26 14 - - WSW 1017,1 19 0,0
24.01.2020 21:00:00 5,9 5,7 - - 18 10 - - W 1017,6 6 0,0
24.01.2020 20:00:00 6,6 6,2 - - 21 11 - - WSW 1017,8 12 0,0
24.01.2020 19:00:00 6,5 5,8 - - 11 6 - - SW 1017,9 30 0,0
24.01.2020 18:00:00 7,2 6,5 - - 18 10 - - WSW 1018,2 45 0,0
24.01.2020 17:00:00 7,6 6,9 - - 11 6 - - SW 1018,2 27 0,0
24.01.2020 16:00:00 8,0 7,3 - - 11 6 - - W 1018,4 40 0,0
24.01.2020 15:00:00 8,0 7,5 - - 18 10 - - W 1018,6 40 0,0
24.01.2020 14:00:00 7,9 7,5 - - 18 10 - - W 1019,2 30 0,0
24.01.2020 13:00:00 7,9 7,5 - - 21 11 - - W 1020,1 6 0,0
24.01.2020 12:00:00 7,6 7,5 - - 18 10 - - W 1020,6 2,2 0,0
24.01.2020 11:00:00 7,4 7,2 - - 21 11 - - W 1021,1 3,9 0,0
24.01.2020 10:00:00 6,9 6,7 - - 18 10 - - W 1021,1 2,8 0,0
24.01.2020 09:00:00 6,8 6,5 6,0 6,7 21 11 - - W 1021,2 45 0,0
24.01.2020 08:00:00 6,7 6,4 - - 22 12 - - W 1021,0 50 0,0
24.01.2020 07:00:00 6,5 6,4 - - 26 14 - - W 1020,9 7 0,0
24.01.2020 06:00:00 6,4 6,3 - - 24 13 - - W 1020,9 6 0,0
24.01.2020 05:00:00 6,4 6,2 - - 28 15 - - W 1021,2 26 0,2
24.01.2020 04:00:00 6,3 6,1 - - 24 13 - - W 1021,6 5 0,0
24.01.2020 03:00:00 6,5 5,8 - - 26 14 - - W 1022,1 11 0,0
24.01.2020 02:00:00 6,7 5,8 - - 26 14 - - W 1022,6 35 0,0
24.01.2020 01:00:00 6,6 5,7 - - 24 13 - - W 1023,8 45 0,0
24.01.2020 00:00:00 6,7 5,5 - - 21 11 - - W 1024,4 50 0,0
23.01.2020 23:00:00 6,6 5,5 - - 21 11 - - W 1025,2 50 0,0
23.01.2020 22:00:00 6,8 5,5 - - 24 13 - - W 1025,7 50 0,0
23.01.2020 21:00:00 6,4 5,7 - - 24 13 - - W 1025,7 50 0,0
23.01.2020 20:00:00 6,2 5,3 - - 24 13 - - W 1025,9 45 0,0
23.01.2020 19:00:00 6,6 6,0 - - 21 11 - - W 1026,0 12 0,0
23.01.2020 18:00:00 6,7 6,0 - - 21 11 - - W 1026,6 5 0,0
23.01.2020 17:00:00 7,2 5,4 - - 21 11 - - WNW 1027,1 50 0,0
23.01.2020 16:00:00 7,1 6,0 - - 16 9 - - WNW 1027,4 5 0,0
23.01.2020 15:00:00 7,4 5,7 - - 18 10 - - W 1027,8 50 0,0
23.01.2020 14:00:00 7,8 5,7 - - 21 11 - - W 1028,7 50 0,0
23.01.2020 13:00:00 7,3 5,2 - - 21 11 - - W 1029,8 50 0,0
23.01.2020 12:00:00 6,9 6,1 - - 21 11 - - WNW 1030,9 8 0,0
23.01.2020 11:00:00 7,1 5,7 - - 18 10 - - WNW 1031,4 45 0,0
23.01.2020 10:00:00 6,8 5,5 - - 15 8 - - WNW 1031,5 40 0,0
23.01.2020 09:00:00 7,0 5,7 6,0 6,5 16 9 - - WNW 1032,1 45 0,0
23.01.2020 08:00:00 6,8 6,2 - - 16 9 - - W 1032,1 9 0,0
23.01.2020 07:00:00 7,3 6,0 - - 18 10 - - W 1032,1 40 0,0
23.01.2020 06:00:00 7,4 5,9 - - 22 12 - - W 1032,1 50 0,0
23.01.2020 05:00:00 6,6 6,5 - - 13 7 - - W 1032,7 14 0,0
23.01.2020 04:00:00 6,8 6,6 - - 16 9 - - W 1033,4 6 0,0
23.01.2020 03:00:00 7,0 6,7 - - 16 9 - - W 1034,7 6 0,0
23.01.2020 02:00:00 8,0 7,6 - - 13 7 - - W 1035,2 15 0,0
23.01.2020 01:00:00 7,6 7,0 - - 11 6 - - WSW 1035,5 24 0,0
23.01.2020 00:00:00 8,2 8,0 - - 15 8 - - SW 1035,4 14 0,0
22.01.2020 23:00:00 7,7 7,7 - - 2 1 - - S 1036,1 5 0,0
22.01.2020 22:00:00 7,5 7,5 - - 2 1 - - NNE 1036,3 1,5 0,0
22.01.2020 21:00:00 7,5 7,5 - - 2 1 - - W 1036,7 0,1 0,0
22.01.2020 20:00:00 7,6 7,6 - - 2 1 - - SE 1037,0 0,1 0,0
22.01.2020 19:00:00 7,8 7,8 - - 4 2 - - W 1037,4 0,1 0,0
22.01.2020 18:00:00 8,2 8,1 - - 5 3 - - NW 1037,7 0,1 0,0
22.01.2020 17:00:00 8,3 8,1 - - 4 2 - - NNW 1037,8 0,1 0,0
22.01.2020 16:00:00 8,9 8,3 - - 8 4 - - NNW 1037,8 8 0,0
22.01.2020 15:00:00 10,0 8,4 - - 8 4 - - NW 1037,7 30 0,0
22.01.2020 14:00:00 10,6 8,2 - - 11 6 - - NW 1038,1 35 0,0
22.01.2020 13:00:00 10,5 8,1 - - 11 6 - - W 1038,6 30 0,0
22.01.2020 12:00:00 10,4 8,2 - - 13 7 - - W 1039,0 28 0,0
22.01.2020 11:00:00 9,3 7,9 - - 13 7 - - WSW 1039,4 27 0,0
22.01.2020 10:00:00 8,9 7,6 - - 9 5 - - WSW 1039,4 25 0,0
22.01.2020 09:00:00 6,7 6,6 5,7 6,5 5 3 - - W 1039,6 23 0,0
22.01.2020 08:00:00 5,3 4,6 - - 2 1 - - W 1039,2 17 0,0
22.01.2020 07:00:00 7,1 6,1 - - 2 1 - - NNE 1039,0 23 0,0
22.01.2020 06:00:00 8,0 6,7 - - 2 1 - - SSE 1038,8 25 0,0
22.01.2020 05:00:00 8,4 7,3 - - 5 3 - - W 1038,8 27 0,0
22.01.2020 04:00:00 8,3 7,1 - - 2 1 - - NNW 1039,3 25 0,0
22.01.2020 03:00:00 9,1 7,3 - - 9 5 - - WNW 1039,4 40 0,0
22.01.2020 02:00:00 8,6 7,2 - - 5 3 - - WSW 1039,7 30 0,0
22.01.2020 01:00:00 9,0 7,9 - - 9 5 - - WSW 1039,7 40 0,0
22.01.2020 00:00:00 8,6 7,2 - - 4 2 - - NW 1040,0 30 0,0
21.01.2020 23:00:00 9,6 8,2 - - 15 8 - - WNW 1039,7 40 0,0
21.01.2020 22:00:00 9,3 8,5 - - 15 8 - - W 1039,7 24 0,0
21.01.2020 21:00:00 9,3 8,6 - - 15 8 - - W 1039,7 23 0,0
21.01.2020 20:00:00 9,0 8,5 - - 16 9 - - W 1039,6 14 0,0
21.01.2020 19:00:00 8,9 8,4 - - 16 9 - - W 1039,5 9 0,0
21.01.2020 18:00:00 9,0 8,7 - - 18 10 - - W 1039,3 24 0,0
21.01.2020 17:00:00 8,8 8,7 - - 16 9 - - WNW 1039,3 3,9 0,0
21.01.2020 16:00:00 8,6 8,5 - - 16 9 - - W 1039,3 4,5 0,0
21.01.2020 15:00:00 8,9 8,5 - - 18 10 - - W 1039,3 7 0,0
21.01.2020 14:00:00 9,1 8,3 - - 21 11 - - W 1039,8 28 0,0
21.01.2020 13:00:00 9,0 8,3 - - 21 11 - - W 1040,2 50 0,0
21.01.2020 12:00:00 8,9 8,3 - - 22 12 - - W 1040,4 35 0,0
21.01.2020 11:00:00 8,6 8,0 - - 26 14 - - W 1040,6 28 0,0
21.01.2020 10:00:00 8,6 7,8 - - 24 13 - - W 1040,4 30 0,0
21.01.2020 09:00:00 8,5 7,8 4,9 6,5 24 13 - - W 1040,1 50 0,0
21.01.2020 08:00:00 8,2 7,5 - - 26 14 - - W 1040,0 40 0,0
21.01.2020 07:00:00 8,3 7,2 - - 22 12 - - W 1040,1 50 0,0
21.01.2020 06:00:00 8,3 7,2 - - 22 12 - - W 1039,7 45 0,0
21.01.2020 05:00:00 7,9 7,0 - - 21 11 - - W 1040,0 26 0,0
21.01.2020 04:00:00 7,7 6,4 - - 22 12 - - W 1040,0 24 0,0
21.01.2020 03:00:00 7,6 6,0 - - 22 12 - - W 1040,5 29 0,0
21.01.2020 02:00:00 7,5 5,8 - - 31 17 - - W 1040,7 21 0,0
21.01.2020 01:00:00 7,3 5,3 - - 18 10 - - W 1041,2 18 0,0
21.01.2020 00:00:00 6,9 5,1 - - 16 9 - - W 1041,6 18 0,0
20.01.2020 23:00:00 6,9 4,8 - - 26 14 - - W 1041,6 20 0,0
20.01.2020 22:00:00 7,2 4,5 - - 29 16 - - W 1041,5 21 0,0
20.01.2020 21:00:00 7,1 4,7 - - 26 14 - - W 1042,2 19 0,0
20.01.2020 20:00:00 6,9 4,6 - - 21 11 - - W 1042,6 18 0,0
20.01.2020 19:00:00 6,9 4,5 - - 21 11 - - W 1042,8 18 0,0
20.01.2020 18:00:00 6,4 4,4 - - 16 9 - - WSW 1042,8 15 0,0
20.01.2020 17:00:00 6,4 4,3 - - 21 11 - - WSW 1042,9 17 0,0
20.01.2020 16:00:00 6,2 4,1 - - 16 9 - - WSW 1043,1 17 0,0
20.01.2020 15:00:00 6,6 4,3 - - 15 8 - - WSW 1043,0 18 0,0
20.01.2020 14:00:00 6,6 4,3 - - 18 10 - - WSW 1043,3 20 0,0
20.01.2020 13:00:00 6,9 4,3 - - 18 10 - - W 1043,7 19 0,0
20.01.2020 12:00:00 7,0 4,2 - - 13 7 - - W 1043,7 20 0,0
20.01.2020 11:00:00 6,6 3,9 - - 8 4 - - W 1044,2 21 0,0
20.01.2020 10:00:00 5,9 3,7 - - 11 6 - - WSW 1044,2 18 0,0
20.01.2020 09:00:00 5,8 3,6 4,0 6,7 11 6 - - SW 1044,2 18 0,0
20.01.2020 08:00:00 5,8 3,5 - - 8 4 - - W 1044,3 23 0,0
20.01.2020 07:00:00 5,7 3,5 - - 13 7 - - WSW 1044,1 23 0,0
20.01.2020 06:00:00 5,7 3,5 - - 9 5 - - WSW 1044,2 23 0,0
20.01.2020 05:00:00 5,8 3,5 - - 11 6 - - WSW 1044,1 21 0,0
20.01.2020 04:00:00 5,7 3,3 - - 13 7 - - W 1044,5 26 0,0
20.01.2020 03:00:00 5,5 3,1 - - 9 5 - - WSW 1044,7 21 0,0
20.01.2020 02:00:00 4,7 2,8 - - 9 5 - - SSW 1044,8 23 0,0
20.01.2020 01:00:00 3,6 1,8 - - 8 4 - - SW 1044,5 22 0,0
20.01.2020 00:00:00 4,3 2,2 - - 16 9 - - W 1044,2 26 0,0
19.01.2020 23:00:00 4,4 2,2 - - 16 9 - - W 1044,1 25 0,0
19.01.2020 22:00:00 4,4 2,3 - - 18 10 - - WSW 1044,2 24 0,0
19.01.2020 21:00:00 4,0 1,9 - - 16 9 - - W 1044,5 26 0,0
19.01.2020 20:00:00 4,4 1,3 - - 26 14 - - WSW 1044,6 30 0,0
19.01.2020 19:00:00 4,5 0,4 - - 28 15 - - WSW 1043,8 45 0,0
19.01.2020 18:00:00 4,4 0,3 - - 22 12 50 27 W 1044,1 40 0,0
19.01.2020 17:00:00 4,3 -0,2 - - 26 14 46 25 WSW 1043,1 35 0,0
19.01.2020 16:00:00 4,4 -0,7 - - 29 16 50 27 WSW 1042,6 35 0,0
19.01.2020 15:00:00 4,6 -0,6 - - 41 22 59 32 WSW 1042,1 35 0,0
19.01.2020 14:00:00 5,2 -0,6 - - 39 21 55 30 WSW 1041,9 40 0,0
19.01.2020 13:00:00 5,0 -0,9 - - 34 18 50 27 WSW 1042,7 45 0,0
19.01.2020 12:00:00 4,7 -0,6 - - 28 15 48 26 WSW 1042,8 29 0,0
19.01.2020 11:00:00 3,6 -1,8 - - 18 10 - - WSW 1043,1 50 0,0
19.01.2020 10:00:00 3,3 -1,5 - - 13 7 - - WSW 1043,3 45 0,0
19.01.2020 09:00:00 3,3 -1,3 4,2 6,7 22 12 - - SW 1042,6 45 0,0
19.01.2020 08:00:00 3,0 -1,1 - - 22 12 - - SW 1042,2 45 0,0
19.01.2020 07:00:00 2,0 -0,3 - - 11 6 - - SW 1041,9 30 0,0
19.01.2020 06:00:00 2,5 0,3 - - 13 7 - - SW 1041,5 35 0,0
19.01.2020 05:00:00 2,1 1,0 - - 15 8 - - SW 1040,9 25 0,0
19.01.2020 04:00:00 2,4 1,4 - - 13 7 - - SW 1040,5 27 0,0
19.01.2020 03:00:00 2,3 1,1 - - 16 9 - - SW 1039,9 35 0,0

tt = Température de l'air
td = dewpoint
tt -20cm = Température de l'air -20cm
tt -100cm = Température de l'air -100cm
ff = Vitesse du vent
fx = gusts
dd = Direction du vent
ppp = reduced air pressure
vv = visibility
rr = Quantités de précipitations

stations d'obs. à proximité